Year,Month,Day,Hour,Minute,Value (Times are PST for windspeed in km/hr)
2010,08,31,00,00,3.70
2010,08,31,00,01,1.60
2010,08,31,00,02,1.60
2010,08,31,00,03,1.60
2010,08,31,00,04,0.50
2010,08,31,00,05,0.60
2010,08,31,00,06,0.70
2010,08,31,00,07,2.40
2010,08,31,00,08,0.40
2010,08,31,00,09,2.90
2010,08,31,00,10,0.90
2010,08,31,00,11,0.90
2010,08,31,00,12,0.50
2010,08,31,00,13,1.40
2010,08,31,00,14,0.40
2010,08,31,00,15,0.00
2010,08,31,00,16,0.00
2010,08,31,00,17,0.00
2010,08,31,00,18,0.00
2010,08,31,00,19,0.10
2010,08,31,00,20,0.90
2010,08,31,00,21,0.00
2010,08,31,00,22,0.00
2010,08,31,00,23,1.50
2010,08,31,00,24,2.00
2010,08,31,00,25,2.40
2010,08,31,00,26,1.20
2010,08,31,00,27,1.90
2010,08,31,00,28,0.20
2010,08,31,00,29,0.00
2010,08,31,00,30,0.00
2010,08,31,00,31,0.00
2010,08,31,00,32,0.00
2010,08,31,00,33,0.00
2010,08,31,00,34,0.00
2010,08,31,00,35,0.00
2010,08,31,00,36,0.30
2010,08,31,00,37,0.50
2010,08,31,00,38,0.00
2010,08,31,00,39,0.00
2010,08,31,00,40,0.00
2010,08,31,00,41,0.00
2010,08,31,00,42,0.00
2010,08,31,00,43,0.00
2010,08,31,00,44,0.00
2010,08,31,00,45,0.60
2010,08,31,00,46,0.10
2010,08,31,00,47,0.00
2010,08,31,00,48,1.10
2010,08,31,00,49,1.00
2010,08,31,00,50,0.00
2010,08,31,00,51,0.90
2010,08,31,00,52,0.00
2010,08,31,00,53,0.00
2010,08,31,00,54,0.40
2010,08,31,00,55,0.00
2010,08,31,00,56,0.40
2010,08,31,00,57,2.20
2010,08,31,00,58,4.30
2010,08,31,00,59,3.60
2010,08,31,01,00,3.90
2010,08,31,01,01,0.80
2010,08,31,01,02,3.00
2010,08,31,01,03,1.10
2010,08,31,01,04,2.50
2010,08,31,01,05,1.00
2010,08,31,01,06,0.40
2010,08,31,01,07,1.00
2010,08,31,01,08,0.00
2010,08,31,01,09,0.00
2010,08,31,01,10,0.20
2010,08,31,01,11,0.00
2010,08,31,01,12,0.00
2010,08,31,01,13,0.00
2010,08,31,01,14,0.00
2010,08,31,01,15,4.20
2010,08,31,01,16,3.30
2010,08,31,01,17,1.00
2010,08,31,01,18,0.20
2010,08,31,01,19,0.20
2010,08,31,01,20,2.20
2010,08,31,01,21,1.30
2010,08,31,01,22,0.00
2010,08,31,01,23,0.40
2010,08,31,01,24,0.60
2010,08,31,01,25,0.90
2010,08,31,01,26,0.30
2010,08,31,01,27,0.00
2010,08,31,01,28,0.00
2010,08,31,01,29,0.00
2010,08,31,01,30,0.30
2010,08,31,01,31,0.00
2010,08,31,01,32,0.00
2010,08,31,01,33,1.40
2010,08,31,01,34,0.10
2010,08,31,01,35,0.20
2010,08,31,01,36,2.10
2010,08,31,01,37,0.10
2010,08,31,01,38,0.60
2010,08,31,01,39,0.70
2010,08,31,01,40,0.00
2010,08,31,01,41,0.10
2010,08,31,01,42,0.70
2010,08,31,01,43,0.50
2010,08,31,01,44,0.00
2010,08,31,01,45,0.00
2010,08,31,01,46,0.00
2010,08,31,01,47,0.00
2010,08,31,01,48,0.00
2010,08,31,01,49,0.70
2010,08,31,01,50,0.20
2010,08,31,01,51,0.00
2010,08,31,01,52,0.00
2010,08,31,01,53,0.10
2010,08,31,01,54,0.00
2010,08,31,01,55,0.20
2010,08,31,01,56,0.00
2010,08,31,01,57,0.00
2010,08,31,01,58,0.00
2010,08,31,01,59,0.30
2010,08,31,02,00,0.70
2010,08,31,02,01,1.60
2010,08,31,02,02,2.00
2010,08,31,02,03,1.20
2010,08,31,02,04,0.40
2010,08,31,02,05,0.80
2010,08,31,02,06,0.40
2010,08,31,02,07,1.10
2010,08,31,02,08,1.10
2010,08,31,02,09,0.60
2010,08,31,02,10,0.00
2010,08,31,02,11,0.20
2010,08,31,02,12,0.60
2010,08,31,02,13,1.10
2010,08,31,02,14,0.20
2010,08,31,02,15,0.50
2010,08,31,02,16,0.30
2010,08,31,02,17,0.40
2010,08,31,02,18,0.40
2010,08,31,02,19,0.50
2010,08,31,02,20,0.40
2010,08,31,02,21,0.70
2010,08,31,02,22,1.50
2010,08,31,02,23,1.70
2010,08,31,02,24,0.30
2010,08,31,02,25,1.50
2010,08,31,02,26,0.30
2010,08,31,02,27,0.40
2010,08,31,02,28,0.00
2010,08,31,02,29,0.00
2010,08,31,02,30,0.00
2010,08,31,02,31,0.90
2010,08,31,02,32,0.50
2010,08,31,02,33,0.10
2010,08,31,02,34,0.00
2010,08,31,02,35,0.00
2010,08,31,02,36,0.00
2010,08,31,02,37,0.00
2010,08,31,02,38,0.00
2010,08,31,02,39,0.00
2010,08,31,02,40,2.00
2010,08,31,02,41,1.40
2010,08,31,02,42,1.30
2010,08,31,02,43,0.20
2010,08,31,02,44,0.30
2010,08,31,02,45,0.10
2010,08,31,02,46,0.90
2010,08,31,02,47,0.60
2010,08,31,02,48,0.00
2010,08,31,02,49,0.00
2010,08,31,02,50,0.30
2010,08,31,02,51,0.00
2010,08,31,02,52,0.00
2010,08,31,02,53,0.50
2010,08,31,02,54,1.30
2010,08,31,02,55,0.00
2010,08,31,02,56,0.00
2010,08,31,02,57,0.00
2010,08,31,02,58,0.00
2010,08,31,02,59,0.00
2010,08,31,03,00,0.00
2010,08,31,03,01,0.00
2010,08,31,03,02,0.10
2010,08,31,03,03,0.00
2010,08,31,03,04,0.00
2010,08,31,03,05,0.00
2010,08,31,03,06,0.00
2010,08,31,03,07,0.00
2010,08,31,03,08,0.00
2010,08,31,03,09,0.00
2010,08,31,03,10,0.00
2010,08,31,03,11,0.00
2010,08,31,03,12,0.20
2010,08,31,03,13,0.00
2010,08,31,03,14,0.00
2010,08,31,03,15,0.00
2010,08,31,03,16,0.00
2010,08,31,03,17,0.00
2010,08,31,03,18,0.00
2010,08,31,03,19,0.00
2010,08,31,03,20,0.00
2010,08,31,03,21,0.00
2010,08,31,03,22,0.60
2010,08,31,03,23,0.00
2010,08,31,03,24,0.60
2010,08,31,03,25,4.80
2010,08,31,03,26,1.40
2010,08,31,03,27,1.90
2010,08,31,03,28,0.20
2010,08,31,03,29,0.30
2010,08,31,03,30,3.00
2010,08,31,03,31,2.20
2010,08,31,03,32,2.00
2010,08,31,03,33,3.60
2010,08,31,03,34,0.60
2010,08,31,03,35,3.50
2010,08,31,03,36,6.10
2010,08,31,03,37,4.30
2010,08,31,03,38,2.20
2010,08,31,03,39,6.00
2010,08,31,03,40,6.90
2010,08,31,03,41,6.30
2010,08,31,03,42,11.20
2010,08,31,03,43,7.80
2010,08,31,03,44,8.40
2010,08,31,03,45,11.10
2010,08,31,03,46,9.50
2010,08,31,03,47,8.50
2010,08,31,03,48,9.20
2010,08,31,03,49,7.10
2010,08,31,03,50,7.80
2010,08,31,03,51,8.10
2010,08,31,03,52,6.60
2010,08,31,03,53,4.80
2010,08,31,03,54,10.60
2010,08,31,03,55,6.90
2010,08,31,03,56,8.70
2010,08,31,03,57,7.80
2010,08,31,03,58,8.00
2010,08,31,03,59,4.90
2010,08,31,04,00,4.80
2010,08,31,04,01,1.90
2010,08,31,04,02,2.40
2010,08,31,04,03,4.30
2010,08,31,04,04,4.30
2010,08,31,04,05,5.40
2010,08,31,04,06,3.30
2010,08,31,04,07,6.80
2010,08,31,04,08,6.90
2010,08,31,04,09,4.70
2010,08,31,04,10,6.80
2010,08,31,04,11,6.70
2010,08,31,04,12,2.50
2010,08,31,04,13,4.90
2010,08,31,04,14,0.60
2010,08,31,04,15,1.50
2010,08,31,04,16,8.10
2010,08,31,04,17,4.10
2010,08,31,04,18,4.80
2010,08,31,04,19,3.50
2010,08,31,04,20,6.50
2010,08,31,04,21,3.60
2010,08,31,04,22,1.20
2010,08,31,04,23,1.50
2010,08,31,04,24,0.20
2010,08,31,04,25,1.10
2010,08,31,04,26,1.00
2010,08,31,04,27,3.90
2010,08,31,04,28,2.30
2010,08,31,04,29,5.50
2010,08,31,04,30,2.20
2010,08,31,04,31,1.90
2010,08,31,04,32,2.20
2010,08,31,04,33,3.70
2010,08,31,04,34,3.20
2010,08,31,04,35,0.40
2010,08,31,04,36,3.10
2010,08,31,04,37,0.40
2010,08,31,04,38,2.80
2010,08,31,04,39,2.30
2010,08,31,04,40,1.40
2010,08,31,04,41,2.70
2010,08,31,04,42,0.40
2010,08,31,04,43,0.50
2010,08,31,04,44,0.10
2010,08,31,04,45,1.90
2010,08,31,04,46,1.80
2010,08,31,04,47,1.00
2010,08,31,04,48,3.70
2010,08,31,04,49,1.00
2010,08,31,04,50,0.00
2010,08,31,04,51,0.80
2010,08,31,04,52,0.00
2010,08,31,04,53,0.40
2010,08,31,04,54,1.60
2010,08,31,04,55,3.90
2010,08,31,04,56,2.00
2010,08,31,04,57,1.70
2010,08,31,04,58,3.10
2010,08,31,04,59,3.00
2010,08,31,05,00,1.50
2010,08,31,05,01,1.70
2010,08,31,05,02,0.60
2010,08,31,05,03,1.00
2010,08,31,05,04,3.50
2010,08,31,05,05,5.20
2010,08,31,05,06,5.60
2010,08,31,05,07,2.50
2010,08,31,05,08,2.30
2010,08,31,05,09,1.10
2010,08,31,05,10,2.60
2010,08,31,05,11,0.90
2010,08,31,05,12,0.10
2010,08,31,05,13,0.50
2010,08,31,05,14,2.40
2010,08,31,05,15,1.50
2010,08,31,05,16,2.70
2010,08,31,05,17,0.00
2010,08,31,05,18,3.10
2010,08,31,05,19,6.40
2010,08,31,05,20,3.30
2010,08,31,05,21,3.70
2010,08,31,05,22,0.80
2010,08,31,05,23,3.10
2010,08,31,05,24,3.10
2010,08,31,05,25,2.00
2010,08,31,05,26,1.80
2010,08,31,05,27,0.80
2010,08,31,05,28,0.40
2010,08,31,05,29,0.90
2010,08,31,05,30,2.60
2010,08,31,05,31,5.60
2010,08,31,05,32,5.60
2010,08,31,05,33,1.90
2010,08,31,05,34,0.10
2010,08,31,05,35,1.20
2010,08,31,05,36,2.50
2010,08,31,05,37,4.80
2010,08,31,05,38,5.00
2010,08,31,05,39,5.10
2010,08,31,05,40,3.50
2010,08,31,05,41,2.20
2010,08,31,05,42,4.50
2010,08,31,05,43,1.60
2010,08,31,05,44,4.60
2010,08,31,05,45,5.30
2010,08,31,05,46,0.40
2010,08,31,05,47,1.30
2010,08,31,05,48,0.60
2010,08,31,05,49,5.00
2010,08,31,05,50,8.30
2010,08,31,05,51,7.20
2010,08,31,05,52,3.70
2010,08,31,05,53,0.50
2010,08,31,05,54,7.70
2010,08,31,05,55,9.30
2010,08,31,05,56,7.40
2010,08,31,05,57,6.40
2010,08,31,05,58,6.20
2010,08,31,05,59,4.30
2010,08,31,06,00,2.20
2010,08,31,06,01,0.70
2010,08,31,06,02,1.50
2010,08,31,06,03,3.30
2010,08,31,06,04,5.80
2010,08,31,06,05,5.40
2010,08,31,06,06,7.20
2010,08,31,06,07,6.00
2010,08,31,06,08,10.90
2010,08,31,06,09,4.70
2010,08,31,06,10,5.20
2010,08,31,06,11,2.80
2010,08,31,06,12,5.80
2010,08,31,06,13,2.00
2010,08,31,06,14,6.90
2010,08,31,06,15,5.20
2010,08,31,06,16,8.30
2010,08,31,06,17,6.90
2010,08,31,06,18,8.70
2010,08,31,06,19,4.10
2010,08,31,06,20,5.20
2010,08,31,06,21,6.60
2010,08,31,06,22,7.60
2010,08,31,06,23,4.70
2010,08,31,06,24,7.00
2010,08,31,06,25,2.30
2010,08,31,06,26,3.90
2010,08,31,06,27,8.60
2010,08,31,06,28,8.10
2010,08,31,06,29,5.70
2010,08,31,06,30,5.50
2010,08,31,06,31,8.00
2010,08,31,06,32,6.80
2010,08,31,06,33,7.20
2010,08,31,06,34,7.00
2010,08,31,06,35,12.20
2010,08,31,06,36,5.40
2010,08,31,06,37,5.80
2010,08,31,06,38,5.00
2010,08,31,06,39,8.40
2010,08,31,06,40,8.70
2010,08,31,06,41,10.70
2010,08,31,06,42,7.60
2010,08,31,06,43,7.90
2010,08,31,06,44,10.00
2010,08,31,06,45,5.90
2010,08,31,06,46,5.30
2010,08,31,06,47,2.70
2010,08,31,06,48,9.20
2010,08,31,06,49,10.20
2010,08,31,06,50,7.60
2010,08,31,06,51,4.80
2010,08,31,06,52,6.50
2010,08,31,06,53,9.10
2010,08,31,06,54,7.60
2010,08,31,06,55,10.00
2010,08,31,06,56,11.00
2010,08,31,06,57,9.00
2010,08,31,06,58,11.30
2010,08,31,06,59,6.80
2010,08,31,07,00,6.40
2010,08,31,07,01,5.60
2010,08,31,07,02,9.30
2010,08,31,07,03,8.30
2010,08,31,07,04,9.40
2010,08,31,07,05,4.50
2010,08,31,07,06,6.40
2010,08,31,07,07,4.10
2010,08,31,07,08,3.50
2010,08,31,07,09,5.30
2010,08,31,07,10,11.10
2010,08,31,07,11,7.80
2010,08,31,07,12,11.50
2010,08,31,07,13,13.80
2010,08,31,07,14,12.10
2010,08,31,07,15,8.80
2010,08,31,07,16,9.70
2010,08,31,07,17,6.10
2010,08,31,07,18,5.70
2010,08,31,07,19,8.70
2010,08,31,07,20,6.20
2010,08,31,07,21,10.40
2010,08,31,07,22,7.20
2010,08,31,07,23,10.30
2010,08,31,07,24,11.90
2010,08,31,07,25,11.20
2010,08,31,07,26,8.60
2010,08,31,07,27,9.50
2010,08,31,07,28,12.50
2010,08,31,07,29,11.20
2010,08,31,07,30,11.90
2010,08,31,07,31,9.50
2010,08,31,07,32,8.50
2010,08,31,07,33,7.80
2010,08,31,07,34,10.00
2010,08,31,07,35,10.00
2010,08,31,07,36,8.60
2010,08,31,07,37,14.60
2010,08,31,07,38,10.40
2010,08,31,07,39,10.90
2010,08,31,07,40,12.50
2010,08,31,07,41,14.30
2010,08,31,07,42,16.50
2010,08,31,07,43,15.80
2010,08,31,07,44,13.00
2010,08,31,07,45,15.10
2010,08,31,07,46,13.40
2010,08,31,07,47,12.00
2010,08,31,07,48,11.50
2010,08,31,07,49,13.00
2010,08,31,07,50,15.00
2010,08,31,07,51,12.70
2010,08,31,07,52,13.00
2010,08,31,07,53,11.90
2010,08,31,07,54,15.20
2010,08,31,07,55,9.50
2010,08,31,07,56,9.30
2010,08,31,07,57,12.50
2010,08,31,07,58,13.80
2010,08,31,07,59,11.90
2010,08,31,08,00,15.20
2010,08,31,08,01,11.90
2010,08,31,08,02,13.80
2010,08,31,08,03,14.10
2010,08,31,08,04,12.20
2010,08,31,08,05,8.50
2010,08,31,08,06,13.00
2010,08,31,08,07,13.40
2010,08,31,08,08,12.80
2010,08,31,08,09,13.80
2010,08,31,08,10,12.20
2010,08,31,08,11,13.60
2010,08,31,08,12,7.00
2010,08,31,08,13,11.70
2010,08,31,08,14,16.10
2010,08,31,08,15,13.90
2010,08,31,08,16,12.40
2010,08,31,08,17,10.30
2010,08,31,08,18,10.40
2010,08,31,08,19,14.60
2010,08,31,08,20,9.20
2010,08,31,08,21,8.30
2010,08,31,08,22,13.60
2010,08,31,08,23,8.60
2010,08,31,08,24,10.50
2010,08,31,08,25,11.90
2010,08,31,08,26,13.60
2010,08,31,08,27,13.10
2010,08,31,08,28,16.20
2010,08,31,08,29,16.00
2010,08,31,08,30,18.30
2010,08,31,08,31,12.90
2010,08,31,08,32,14.30
2010,08,31,08,33,10.30
2010,08,31,08,34,13.30
2010,08,31,08,35,10.40
2010,08,31,08,36,13.80
2010,08,31,08,37,14.80
2010,08,31,08,38,10.80
2010,08,31,08,39,14.70
2010,08,31,08,40,10.50
2010,08,31,08,41,9.30
2010,08,31,08,42,11.70
2010,08,31,08,43,13.00
2010,08,31,08,44,14.40
2010,08,31,08,45,16.30
2010,08,31,08,46,14.50
2010,08,31,08,47,11.00
2010,08,31,08,48,16.10
2010,08,31,08,49,18.90
2010,08,31,08,50,18.40
2010,08,31,08,51,18.90
2010,08,31,08,52,14.60
2010,08,31,08,53,12.50
2010,08,31,08,54,14.80
2010,08,31,08,55,15.00
2010,08,31,08,56,14.10
2010,08,31,08,57,10.80
2010,08,31,08,58,10.80
2010,08,31,08,59,12.70
2010,08,31,09,00,11.50
2010,08,31,09,01,14.50
2010,08,31,09,02,16.10
2010,08,31,09,03,21.50
2010,08,31,09,04,17.50
2010,08,31,09,05,13.90
2010,08,31,09,06,16.30
2010,08,31,09,07,13.10
2010,08,31,09,08,16.60
2010,08,31,09,09,10.10
2010,08,31,09,10,11.90
2010,08,31,09,11,12.20
2010,08,31,09,12,10.40
2010,08,31,09,13,12.00
2010,08,31,09,14,17.50
2010,08,31,09,15,15.50
2010,08,31,09,16,14.40
2010,08,31,09,17,11.00
2010,08,31,09,18,12.10
2010,08,31,09,19,12.60
2010,08,31,09,20,14.10
2010,08,31,09,21,17.80
2010,08,31,09,22,7.60
2010,08,31,09,23,13.10
2010,08,31,09,24,13.30
2010,08,31,09,25,11.00
2010,08,31,09,26,13.60
2010,08,31,09,27,12.50
2010,08,31,09,28,11.40
2010,08,31,09,29,11.00
2010,08,31,09,30,8.70
2010,08,31,09,31,10.50
2010,08,31,09,32,17.90
2010,08,31,09,33,12.20
2010,08,31,09,34,9.90
2010,08,31,09,35,14.10
2010,08,31,09,36,9.20
2010,08,31,09,37,8.80
2010,08,31,09,38,8.20
2010,08,31,09,39,8.50
2010,08,31,09,40,11.00
2010,08,31,09,41,9.30
2010,08,31,09,42,13.00
2010,08,31,09,43,8.70
2010,08,31,09,44,5.20
2010,08,31,09,45,13.10
2010,08,31,09,46,13.90
2010,08,31,09,47,5.80
2010,08,31,09,48,5.90
2010,08,31,09,49,8.60
2010,08,31,09,50,7.30
2010,08,31,09,51,9.70
2010,08,31,09,52,8.00
2010,08,31,09,53,8.20
2010,08,31,09,54,5.00
2010,08,31,09,55,3.60
2010,08,31,09,56,6.20
2010,08,31,09,57,9.10
2010,08,31,09,58,7.40
2010,08,31,09,59,8.40
2010,08,31,10,00,7.10
2010,08,31,10,01,7.20
2010,08,31,10,02,8.60
2010,08,31,10,03,9.70
2010,08,31,10,04,7.80
2010,08,31,10,05,6.20
2010,08,31,10,06,8.90
2010,08,31,10,07,8.80
2010,08,31,10,08,6.60
2010,08,31,10,09,3.60
2010,08,31,10,10,10.30
2010,08,31,10,11,7.00
2010,08,31,10,12,8.50
2010,08,31,10,13,7.10
2010,08,31,10,14,7.10
2010,08,31,10,15,4.70
2010,08,31,10,16,8.10
2010,08,31,10,17,13.00
2010,08,31,10,18,11.90
2010,08,31,10,19,5.40
2010,08,31,10,20,10.20
2010,08,31,10,21,6.60
2010,08,31,10,22,9.30
2010,08,31,10,23,5.60
2010,08,31,10,24,9.70
2010,08,31,10,25,6.40
2010,08,31,10,26,5.70
2010,08,31,10,27,5.10
2010,08,31,10,28,8.00
2010,08,31,10,29,7.20
2010,08,31,10,30,4.40
2010,08,31,10,31,9.50
2010,08,31,10,32,2.10
2010,08,31,10,33,1.90
2010,08,31,10,34,2.20
2010,08,31,10,35,3.00
2010,08,31,10,36,7.30
2010,08,31,10,37,9.80
2010,08,31,10,38,7.70
2010,08,31,10,39,9.70
2010,08,31,10,40,9.80
2010,08,31,10,41,9.50
2010,08,31,10,42,6.60
2010,08,31,10,43,11.30
2010,08,31,10,44,9.50
2010,08,31,10,45,4.10
2010,08,31,10,46,4.00
2010,08,31,10,47,6.70
2010,08,31,10,48,1.60
2010,08,31,10,49,9.70
2010,08,31,10,50,6.30
2010,08,31,10,51,7.00
2010,08,31,10,52,10.90
2010,08,31,10,53,9.10
2010,08,31,10,54,1.90
2010,08,31,10,55,5.70
2010,08,31,10,56,5.70
2010,08,31,10,57,5.80
2010,08,31,10,58,5.90
2010,08,31,10,59,8.70
2010,08,31,11,00,6.80
2010,08,31,11,01,4.10
2010,08,31,11,02,3.80
2010,08,31,11,03,10.10
2010,08,31,11,04,6.60
2010,08,31,11,05,5.20
2010,08,31,11,06,1.50
2010,08,31,11,07,1.30
2010,08,31,11,08,6.40
2010,08,31,11,09,7.70
2010,08,31,11,10,7.70
2010,08,31,11,11,5.80
2010,08,31,11,12,3.40
2010,08,31,11,13,5.90
2010,08,31,11,14,9.70
2010,08,31,11,15,3.70
2010,08,31,11,16,1.40
2010,08,31,11,17,1.70
2010,08,31,11,18,2.30
2010,08,31,11,19,2.00
2010,08,31,11,20,4.10
2010,08,31,11,21,3.00
2010,08,31,11,22,6.70
2010,08,31,11,23,1.40
2010,08,31,11,24,2.90
2010,08,31,11,25,3.40
2010,08,31,11,26,5.80
2010,08,31,11,27,4.30
2010,08,31,11,28,4.60
2010,08,31,11,29,2.00
2010,08,31,11,30,2.80
2010,08,31,11,31,4.50
2010,08,31,11,32,4.30
2010,08,31,11,33,1.20
2010,08,31,11,34,3.30
2010,08,31,11,35,2.80
2010,08,31,11,36,1.40
2010,08,31,11,37,2.80
2010,08,31,11,38,6.40
2010,08,31,11,39,3.80
2010,08,31,11,40,3.10
2010,08,31,11,41,4.80
2010,08,31,11,42,3.10
2010,08,31,11,43,2.70
2010,08,31,11,44,4.20
2010,08,31,11,45,3.60
2010,08,31,11,46,2.00
2010,08,31,11,47,3.60
2010,08,31,11,48,2.30
2010,08,31,11,49,6.30
2010,08,31,11,50,8.40
2010,08,31,11,51,10.50
2010,08,31,11,52,8.00
2010,08,31,11,53,8.10
2010,08,31,11,54,7.20
2010,08,31,11,55,7.40
2010,08,31,11,56,8.60
2010,08,31,11,57,6.90
2010,08,31,11,58,6.00
2010,08,31,11,59,8.20
2010,08,31,12,00,6.90
2010,08,31,12,01,5.30
2010,08,31,12,02,2.80
2010,08,31,12,03,2.70
2010,08,31,12,04,5.20
2010,08,31,12,05,3.90
2010,08,31,12,06,5.40
2010,08,31,12,07,8.00
2010,08,31,12,08,5.20
2010,08,31,12,09,5.30
2010,08,31,12,10,6.20
2010,08,31,12,11,4.70
2010,08,31,12,12,5.20
2010,08,31,12,13,5.30
2010,08,31,12,14,7.50
2010,08,31,12,15,5.90
2010,08,31,12,16,7.80
2010,08,31,12,17,6.10
2010,08,31,12,18,7.30
2010,08,31,12,19,9.70
2010,08,31,12,20,7.60
2010,08,31,12,21,5.50
2010,08,31,12,22,6.00
2010,08,31,12,23,6.40
2010,08,31,12,24,6.40
2010,08,31,12,25,6.70
2010,08,31,12,26,5.70
2010,08,31,12,27,7.60
2010,08,31,12,28,8.90
2010,08,31,12,29,13.50
2010,08,31,12,30,5.80
2010,08,31,12,31,7.20
2010,08,31,12,32,3.40
2010,08,31,12,33,8.40
2010,08,31,12,34,10.90
2010,08,31,12,35,8.70
2010,08,31,12,36,6.80
2010,08,31,12,37,4.30
2010,08,31,12,38,7.00
2010,08,31,12,39,8.90
2010,08,31,12,40,9.40
2010,08,31,12,41,5.40
2010,08,31,12,42,7.80
2010,08,31,12,43,6.20
2010,08,31,12,44,4.30
2010,08,31,12,45,4.50
2010,08,31,12,46,7.50
2010,08,31,12,47,3.10
2010,08,31,12,48,5.40
2010,08,31,12,49,4.40
2010,08,31,12,50,9.00
2010,08,31,12,51,8.20
2010,08,31,12,52,3.90
2010,08,31,12,53,3.30
2010,08,31,12,54,4.30
2010,08,31,12,55,8.40
2010,08,31,12,56,3.20
2010,08,31,12,57,5.50
2010,08,31,12,58,6.90
2010,08,31,12,59,9.40
2010,08,31,13,00,7.20
2010,08,31,13,01,7.50
2010,08,31,13,02,4.30
2010,08,31,13,03,3.60
2010,08,31,13,04,6.30
2010,08,31,13,05,9.20
2010,08,31,13,06,5.50
2010,08,31,13,07,6.00
2010,08,31,13,08,3.50
2010,08,31,13,09,2.30
2010,08,31,13,10,5.00
2010,08,31,13,11,3.50
2010,08,31,13,12,1.20
2010,08,31,13,13,2.90
2010,08,31,13,14,7.40
2010,08,31,13,15,8.10
2010,08,31,13,16,5.90
2010,08,31,13,17,4.20
2010,08,31,13,18,8.70
2010,08,31,13,19,4.70
2010,08,31,13,20,3.50
2010,08,31,13,21,9.20
2010,08,31,13,22,5.00
2010,08,31,13,23,8.40
2010,08,31,13,24,10.10
2010,08,31,13,25,5.20
2010,08,31,13,26,2.70
2010,08,31,13,27,4.10
2010,08,31,13,28,5.70
2010,08,31,13,29,5.30
2010,08,31,13,30,5.90
2010,08,31,13,31,8.10
2010,08,31,13,32,5.50
2010,08,31,13,33,3.30
2010,08,31,13,34,2.30
2010,08,31,13,35,3.90
2010,08,31,13,36,8.70
2010,08,31,13,37,6.30
2010,08,31,13,38,2.60
2010,08,31,13,39,5.70
2010,08,31,13,40,5.50
2010,08,31,13,41,6.10
2010,08,31,13,42,6.40
2010,08,31,13,43,5.00
2010,08,31,13,44,4.30
2010,08,31,13,45,7.50
2010,08,31,13,46,6.80
2010,08,31,13,47,9.30
2010,08,31,13,48,6.20
2010,08,31,13,49,6.80
2010,08,31,13,50,5.20
2010,08,31,13,51,3.60
2010,08,31,13,52,0.80
2010,08,31,13,53,9.00
2010,08,31,13,54,2.20
2010,08,31,13,55,4.20
2010,08,31,13,56,3.90
2010,08,31,13,57,4.30
2010,08,31,13,58,6.80
2010,08,31,13,59,3.80
2010,08,31,14,00,6.70
2010,08,31,14,01,1.90
2010,08,31,14,02,4.10
2010,08,31,14,03,3.10
2010,08,31,14,04,5.60
2010,08,31,14,05,4.70
2010,08,31,14,06,1.80
2010,08,31,14,07,1.80
2010,08,31,14,08,3.10
2010,08,31,14,09,3.00
2010,08,31,14,10,0.30
2010,08,31,14,11,1.40
2010,08,31,14,12,5.00
2010,08,31,14,13,0.80
2010,08,31,14,14,2.80
2010,08,31,14,15,2.10
2010,08,31,14,16,2.40
2010,08,31,14,17,0.70
2010,08,31,14,18,0.80
2010,08,31,14,19,1.30
2010,08,31,14,20,0.70
2010,08,31,14,21,0.60
2010,08,31,14,22,1.80
2010,08,31,14,23,1.90
2010,08,31,14,24,1.80
2010,08,31,14,25,3.00
2010,08,31,14,26,2.70
2010,08,31,14,27,1.50
2010,08,31,14,28,6.10
2010,08,31,14,29,3.40
2010,08,31,14,30,2.50
2010,08,31,14,31,3.50
2010,08,31,14,32,5.00
2010,08,31,14,33,1.90
2010,08,31,14,34,2.00
2010,08,31,14,35,0.00
2010,08,31,14,36,0.00
2010,08,31,14,37,0.00
2010,08,31,14,38,1.50
2010,08,31,14,39,1.60
2010,08,31,14,40,3.50
2010,08,31,14,41,1.30
2010,08,31,14,42,1.90
2010,08,31,14,43,0.50
2010,08,31,14,44,2.40
2010,08,31,14,45,0.60
2010,08,31,14,46,1.10
2010,08,31,14,47,0.10
2010,08,31,14,48,2.40
2010,08,31,14,49,5.20
2010,08,31,14,50,3.80
2010,08,31,14,51,1.00
2010,08,31,14,52,0.40
2010,08,31,14,53,1.10
2010,08,31,14,54,3.50
2010,08,31,14,55,3.30
2010,08,31,14,56,3.10
2010,08,31,14,57,1.70
2010,08,31,14,58,3.90
2010,08,31,14,59,4.10
2010,08,31,15,00,3.50
2010,08,31,15,01,1.80
2010,08,31,15,02,7.00
2010,08,31,15,03,1.60
2010,08,31,15,04,3.00
2010,08,31,15,05,1.60
2010,08,31,15,06,2.00
2010,08,31,15,07,1.90
2010,08,31,15,08,3.50
2010,08,31,15,09,2.60
2010,08,31,15,10,2.90
2010,08,31,15,11,1.60
2010,08,31,15,12,4.70
2010,08,31,15,13,4.10
2010,08,31,15,14,4.10
2010,08,31,15,15,1.90
2010,08,31,15,16,6.20
2010,08,31,15,17,1.30
2010,08,31,15,18,3.80
2010,08,31,15,19,5.40
2010,08,31,15,20,0.60
2010,08,31,15,21,2.30
2010,08,31,15,22,2.80
2010,08,31,15,23,4.00
2010,08,31,15,24,2.00
2010,08,31,15,25,1.00
2010,08,31,15,26,2.60
2010,08,31,15,27,2.50
2010,08,31,15,28,3.40
2010,08,31,15,29,4.50
2010,08,31,15,30,1.30
2010,08,31,15,31,2.20
2010,08,31,15,32,3.70
2010,08,31,15,33,1.60
2010,08,31,15,34,4.60
2010,08,31,15,35,1.60
2010,08,31,15,36,1.20
2010,08,31,15,37,1.60
2010,08,31,15,38,0.30
2010,08,31,15,39,3.60
2010,08,31,15,40,6.80
2010,08,31,15,41,7.50
2010,08,31,15,42,2.00
2010,08,31,15,43,3.20
2010,08,31,15,44,0.70
2010,08,31,15,45,0.40
2010,08,31,15,46,1.90
2010,08,31,15,47,0.30
2010,08,31,15,48,1.50
2010,08,31,15,49,1.60
2010,08,31,15,50,3.60
2010,08,31,15,51,2.00
2010,08,31,15,52,5.80
2010,08,31,15,53,2.70
2010,08,31,15,54,0.10
2010,08,31,15,55,0.20
2010,08,31,15,56,3.30
2010,08,31,15,57,0.50
2010,08,31,15,58,5.10
2010,08,31,15,59,2.30
2010,08,31,16,00,1.30
2010,08,31,16,01,3.90
2010,08,31,16,02,2.80
2010,08,31,16,03,1.10
2010,08,31,16,04,4.20
2010,08,31,16,05,5.30
2010,08,31,16,06,1.50
2010,08,31,16,07,2.20
2010,08,31,16,08,0.70
2010,08,31,16,09,2.20
2010,08,31,16,10,2.10
2010,08,31,16,11,4.30
2010,08,31,16,12,1.90
2010,08,31,16,13,0.80
2010,08,31,16,14,0.00
2010,08,31,16,15,1.40
2010,08,31,16,16,2.00
2010,08,31,16,17,1.40
2010,08,31,16,18,2.80
2010,08,31,16,19,1.40
2010,08,31,16,20,3.00
2010,08,31,16,21,0.80
2010,08,31,16,22,2.10
2010,08,31,16,23,1.90
2010,08,31,16,24,1.40
2010,08,31,16,25,3.10
2010,08,31,16,26,3.10
2010,08,31,16,27,2.60
2010,08,31,16,28,6.70
2010,08,31,16,29,2.90
2010,08,31,16,30,5.00
2010,08,31,16,31,1.60
2010,08,31,16,32,2.80
2010,08,31,16,33,0.60
2010,08,31,16,34,1.90
2010,08,31,16,35,0.40
2010,08,31,16,36,3.20
2010,08,31,16,37,1.20
2010,08,31,16,38,1.80
2010,08,31,16,39,1.20
2010,08,31,16,40,7.60
2010,08,31,16,41,2.00
2010,08,31,16,42,4.80
2010,08,31,16,43,0.80
2010,08,31,16,44,0.90
2010,08,31,16,45,1.40
2010,08,31,16,46,1.40
2010,08,31,16,47,0.30
2010,08,31,16,48,0.10
2010,08,31,16,49,1.80
2010,08,31,16,50,2.30
2010,08,31,16,51,3.10
2010,08,31,16,52,0.60
2010,08,31,16,53,1.50
2010,08,31,16,54,0.30
2010,08,31,16,55,1.20
2010,08,31,16,56,4.50
2010,08,31,16,57,5.30
2010,08,31,16,58,5.10
2010,08,31,16,59,4.90
2010,08,31,17,00,1.90
2010,08,31,17,01,0.50
2010,08,31,17,02,2.60
2010,08,31,17,03,5.00
2010,08,31,17,04,1.20
2010,08,31,17,05,4.40
2010,08,31,17,06,4.50
2010,08,31,17,07,5.80
2010,08,31,17,08,0.20
2010,08,31,17,09,1.20
2010,08,31,17,10,4.00
2010,08,31,17,11,0.20
2010,08,31,17,12,3.60
2010,08,31,17,13,7.60
2010,08,31,17,14,2.90
2010,08,31,17,15,6.20
2010,08,31,17,16,1.00
2010,08,31,17,17,0.60
2010,08,31,17,18,3.10
2010,08,31,17,19,1.50
2010,08,31,17,20,2.80
2010,08,31,17,21,0.90
2010,08,31,17,22,3.00
2010,08,31,17,23,1.10
2010,08,31,17,24,1.80
2010,08,31,17,25,3.60
2010,08,31,17,26,5.60
2010,08,31,17,27,3.90
2010,08,31,17,28,2.70
2010,08,31,17,29,1.10
2010,08,31,17,30,1.60
2010,08,31,17,31,1.40
2010,08,31,17,32,0.30
2010,08,31,17,33,2.50
2010,08,31,17,34,0.10
2010,08,31,17,35,4.40
2010,08,31,17,36,3.20
2010,08,31,17,37,2.30
2010,08,31,17,38,3.50
2010,08,31,17,39,2.50
2010,08,31,17,40,3.50
2010,08,31,17,41,2.00
2010,08,31,17,42,4.50
2010,08,31,17,43,0.90
2010,08,31,17,44,1.00
2010,08,31,17,45,3.00
2010,08,31,17,46,1.10
2010,08,31,17,47,2.80
2010,08,31,17,48,4.40
2010,08,31,17,49,4.70
2010,08,31,17,50,3.30
2010,08,31,17,51,3.10
2010,08,31,17,52,3.50
2010,08,31,17,53,3.60
2010,08,31,17,54,0.60
2010,08,31,17,55,5.70
2010,08,31,17,56,3.50
2010,08,31,17,57,2.70
2010,08,31,17,58,5.50
2010,08,31,17,59,0.60